User: anonymous   Login
Location: Lawrence Hall of Science
(37.8785°N, 122.2415°W)
Time: 14:18:30
(UTC-08:00)
Language:

ARGOS - Orbit

View from above orbital plane
View from above orbital plane
View from above satellite
View from above satellite

Ground track
Ground track

The orbit data is extracted from the following two-line orbital elements,

1 25634U 99008A   16344.91307959 -.00000002 +00000-0 +19703-4 0  9994
2 25634 098.6474 046.5478 0010801 039.2491 320.9466 14.19300743921141
Epoch (UTC): 09 December 2016 21:54:50
Eccentricity: 0.0010801
inclination: 98.6474°
perigee height: 820 km
apogee height: 835 km
right ascension of ascending node: 46.5478°
argument of perigee: 39.2491°
revolutions per day: 14.19300743
mean anomaly at epoch: 320.9466°
orbit number at epoch: 92114

The dashed part of the orbit path shows where the satellite is in the earth's shadow,  

DLR